Location: Emblem
(62.4273°N, 6.4710°E)
Time: 05:51:31
(UTC+02:00)

Transit 2A - Pass Details

Date: 12 March 2024
Orbit: 596 x 956 km, 66.7° (Epoch: 24 April)

Event Time Altitude Azimuth Distance (km) Brightness Sun altitude
Rises 21:47:34 0° 292° (WNW) 2,914 10.2 -22.1°
Reaches altitude 10° 21:49:47 10° 296° (WNW) 2,040 9.2 -22.3°
Maximum altitude 21:54:20 59° 17° (NNE) 787 6.1 -22.7°
Enters shadow 21:55:35 44° 71° (ENE) 958 6.3 -22.8°
